[[{"header":{"parameterUnit":"m.s-1","parameterCategory":1,"la1":30.2991,"la2":30.254,"lo1":-89.0895,"lo2":-89.0444,"dy":0.0017,"dx":0.0017,"nx":28,"ny":28,"refTime":"2024-02-01T09:00:00:Z","depth":0,"parameterNumber":2,"parameterNumberName":"U-component_of_WINDS"},"data":[0,0,0,0,0,0,0,0,0,0,0,0,0,0,0,0,0,0,0,0,0,0,0,0,0,0,0,0,0,0,0,0,0,0,0,0,0,0,0,0,0,0,0,0,0,0,0,0,0,0,0,0,0,0,0,0,0,0,-0.0745,-0.0745,0,-0.0735,-0.0735,-0.0734,-0.0745,-0.0745,-0.0746,-0.0746,-0.0737,-0.0736,-0.0736,0,0,0,0,0,0,0,0,0,0,0,0,0,-0.0775,-0.0774,-0.0745,-0.0745,-0.0745,-0.0735,-0.0735,-0.0734,-0.0745,-0.0745,-0.0746,-0.0746,-0.0737,-0.0736,-0.0736,0,0,0,0,0,0,0,0,0,0,0,0,0,-0.0763,-0.0774,-0.0745,-0.0749,-0.0749,-0.0735,-0.0735,-0.0734,-0.0745,-0.0745,-0.0746,-0.0746,-0.0737,-0.0736,-0.0735,-0.0718,0,0,-0.0733,-0.0732,0,0,0,0,0,0,0,0,-0.0763,-0.0762,-0.0748,-0.0748,-0.0749,-0.0742,-0.0742,-0.0729,-0.0745,-0.0746,-0.0746,-0.0747,-0.0738,-0.0737,-0.0734,-0.0717,-0.0717,-0.0732,-0.0732,-0.0732,-0.0731,0,0,0,0,0,0,0,-0.0764,-0.0762,-0.0741,-0.0748,-0.0748,-0.0751,-0.075,-0.0739,-0.0739,-0.0746,-0.0747,-0.0745,-0.0738,-0.0735,-0.0734,-0.0717,-0.0733,-0.0732,-0.0731,-0.0731,-0.0685,-0.0684,0,0,0,0,0,0,-0.0764,-0.0763,-0.0741,-0.0741,-0.0758,-0.075,-0.0749,-0.0743,-0.0739,-0.0739,-0.0745,-0.0746,-0.0736,-0.0735,-0.0733,-0.0712,-0.0732,-0.0731,-0.073,-0.0685,-0.0685,-0.0684,0,0,0,0,0,0,-0.0765,-0.0762,-0.0742,-0.0752,-0.0749,-0.0749,-0.0742,-0.0743,-0.0739,-0.0738,-0.0738,-0.0741,-0.0736,-0.0735,-0.0721,-0.0712,-0.073,-0.0729,-0.0686,-0.0685,-0.0684,-0.0669,0,0,0,0,0,0,-0.0766,-0.0763,-0.0755,-0.0752,-0.0749,-0.0729,-0.0742,-0.0742,-0.0737,-0.0739,-0.0735,-0.0735,-0.0737,-0.0723,-0.072,-0.0711,-0.0729,-0.0687,-0.0686,-0.0685,-0.067,-0.0668,-0.0665,0,0,0,0,0,-0.0767,-0.0752,-0.0755,-0.0752,-0.074,-0.0729,-0.0727,-0.0729,-0.0737,-0.073,-0.0729,-0.0735,-0.0713,-0.0721,-0.0719,-0.0709,-0.0688,-0.0686,-0.0685,-0.0671,-0.0668,-0.0665,0,0,0,0,0,0,-0.0755,-0.0752,-0.0755,-0.0738,-0.0734,-0.073,-0.0722,-0.0726,-0.072,-0.0721,-0.0725,-0.0724,-0.0709,-0.0708,-0.0717,-0.0691,-0.0702,-0.07,-0.0693,-0.0689,-0.0687,-0.0687,-0.0728,0,0,0,0,0,-0.0751,-0.0741,-0.0739,-0.0724,-0.0722,-0.0722,-0.0717,-0.072,-0.0715,-0.0713,-0.0712,-0.0708,-0.07,-0.0695,-0.0688,-0.067,-0.067,-0.0662,-0.066,-0.0658,-0.0656,-0.0646,-0.0643,-0.0679,-0.0679,-0.0679,0,0,-0.0741,-0.0738,-0.0732,-0.0722,-0.0719,-0.0709,-0.072,-0.071,-0.0703,-0.0712,-0.0699,-0.0698,-0.0693,-0.0678,-0.0671,-0.0676,-0.0646,-0.0656,-0.0654,-0.0653,-0.0644,-0.0641,-0.0638,-0.0678,-0.0678,-0.0678,0,0,-0.0719,-0.0716,-0.0703,-0.0699,-0.0694,-0.0694,-0.0691,-0.0688,-0.0687,-0.0674,-0.068,-0.0672,-0.0659,-0.0655,-0.0652,-0.0628,-0.0633,-0.0626,-0.0613,-0.0603,-0.06,-0.0598,-0.0589,-0.0586,-0.0624,-0.0624,-0.0624,0,-0.0708,-0.0694,-0.0696,-0.0685,-0.0681,-0.0688,-0.0675,-0.0672,-0.0664,-0.0661,-0.0667,-0.065,-0.0648,-0.0632,-0.0626,-0.0623,-0.062,-0.0626,-0.0601,-0.0598,-0.0596,-0.0587,-0.0584,-0.0623,-0.0623,-0.0623,-0.0624,0,-0.068,-0.067,-0.0661,-0.0653,-0.0647,-0.0636,-0.0637,-0.0631,-0.0634,-0.0633,-0.062,-0.0617,-0.061,-0.0606,-0.0609,-0.059,-0.0594,-0.06,-0.061,-0.0591,-0.0584,-0.058,-0.0622,-0.0622,-0.0623,-0.0623,0,0,-0.065,-0.0644,-0.064,-0.0636,-0.0631,-0.0624,-0.0612,-0.0604,-0.0599,-0.0594,-0.0585,-0.0573,-0.0579,-0.0575,-0.0578,-0.057,-0.0551,-0.0577,-0.0577,-0.0572,-0.053,-0.0524,-0.052,-0.0554,-0.0554,-0.0553,-0.053,0,-0.0627,-0.0607,-0.0609,-0.059,-0.058,-0.0587,-0.0577,-0.0573,-0.0573,-0.0565,-0.0565,-0.0557,-0.0565,-0.0563,-0.0555,-0.0555,-0.0542,-0.0557,-0.0546,-0.0545,-0.0546,-0.0516,-0.0511,-0.0489,-0.0527,-0.0526,-0.0526,0,-0.0598,-0.0591,-0.0571,-0.0566,-0.0563,-0.0554,-0.0546,-0.0539,-0.0535,-0.0535,-0.053,-0.0534,-0.0523,-0.0534,-0.0519,-0.0529,-0.0525,-0.0524,-0.0523,-0.0522,-0.0534,-0.0514,-0.0482,-0.0478,-0.0521,-0.0522,-0.0522,0,-0.0577,-0.0563,-0.0549,-0.0546,-0.0541,-0.0534,-0.0532,-0.0528,-0.0523,-0.0517,-0.0514,-0.0507,-0.0503,-0.0497,-0.0499,-0.0507,-0.0484,-0.0495,-0.0484,-0.0483,-0.0478,-0.0478,-0.0444,-0.0476,-0.0476,-0.0476,-0.0476,0,-0.0551,-0.0538,-0.0539,-0.0531,-0.0517,-0.0519,-0.0506,-0.0504,-0.0501,-0.0492,-0.0498,-0.049,-0.0493,-0.0485,-0.0487,-0.0474,-0.0473,-0.0473,-0.0473,-0.0472,-0.0471,-0.0468,-0.047,-0.0475,-0.0475,-0.0476,-0.0476,0,-0.0525,-0.0525,-0.051,-0.0507,-0.0506,-0.0495,-0.0492,-0.0484,-0.0484,-0.0473,-0.0471,-0.0471,-0.0462,-0.0464,-0.0455,-0.0456,-0.0439,-0.0442,-0.044,-0.0441,-0.0429,-0.043,-0.0391,-0.0386,-0.0422,-0.0422,-0.0422,0,-0.0508,-0.0498,-0.0493,-0.0488,-0.0485,-0.0476,-0.047,-0.0473,-0.0467,-0.0462,-0.0454,-0.0446,-0.0439,-0.0425,-0.0424,-0.0417,-0.0419,-0.0406,-0.0418,-0.0417,-0.0418,-0.0419,-0.0418,-0.0404,-0.0403,-0.0403,-0.0403,0,-0.0478,-0.0478,-0.047,-0.0462,-0.0456,-0.045,-0.0444,-0.0439,-0.0441,-0.0435,-0.0426,-0.042,-0.041,-0.0402,-0.0395,-0.0393,-0.0398,-0.0399,-0.0396,-0.0394,-0.0393,-0.0393,-0.0433,-0.04,-0.04,-0.04,-0.04,-0.04,-0.0456,-0.0447,-0.0442,-0.0433,-0.0429,-0.0424,-0.0416,-0.0415,-0.0407,-0.0398,-0.04,-0.039,-0.0386,-0.0377,-0.0374,-0.0366,-0.0371,-0.0367,-0.0366,-0.0364,-0.0362,-0.0395,-0.0365,-0.0365,-0.0365,-0.0366,-0.0366,0,-0.0425,-0.0422,-0.0414,-0.0405,-0.0398,-0.0403,-0.0398,-0.0391,-0.0382,-0.0377,-0.037,-0.036,-0.0351,-0.035,-0.0343,-0.0336,-0.0338,-0.0334,-0.0334,-0.0334,-0.0359,-0.0362,-0.0333,-0.0333,-0.0333,-0.0333,-0.0333,-0.0333,-0.0408,-0.0394,-0.0394,-0.0378,-0.0375,-0.0364,-0.036,-0.0355,-0.0352,-0.0339,-0.0332,-0.0332,-0.0328,-0.0321,-0.0313,-0.0313,-0.031,-0.0305,-0.0305,-0.0329,-0.0332,-0.0335,-0.0338,-0.0304,-0.0304,-0.0281,-0.0281,-0.028]},{"header":{"parameterUnit":"m.s-1","parameterCategory":1,"la1":30.2991,"la2":30.254,"lo1":-89.0895,"lo2":-89.0444,"dy":0.0017,"dx":0.0017,"nx":28,"ny":28,"refTime":"2024-02-01T09:00:00:Z","depth":0,"parameterNumber":3,"parameterNumberName":"V-component_of_WINDS"},"data":[0,0,0,0,0,0,0,0,0,0,0,0,0,0,0,0,0,0,0,0,0,0,0,0,0,0,0,0,0,0,0,0,0,0,0,0,0,0,0,0,0,0,0,0,0,0,0,0,0,0,0,0,0,0,0,0,0,0,-0.0586,-0.0587,0,-0.0628,-0.0628,-0.0629,-0.0667,-0.0668,-0.0668,-0.0668,-0.071,-0.0711,-0.0712,0,0,0,0,0,0,0,0,0,0,0,0,0,-0.0539,-0.054,-0.0586,-0.0587,-0.0587,-0.0628,-0.0628,-0.0629,-0.0667,-0.0668,-0.0668,-0.0669,-0.071,-0.0711,-0.0712,0,0,0,0,0,0,0,0,0,0,0,0,0,-0.0568,-0.054,-0.0586,-0.0611,-0.0614,-0.0628,-0.0628,-0.0629,-0.0667,-0.0668,-0.0668,-0.0669,-0.071,-0.0711,-0.0712,-0.0704,0,0,-0.0715,-0.0715,0,0,0,0,0,0,0,0,-0.0566,-0.0569,-0.0607,-0.0609,-0.0612,-0.0643,-0.0627,-0.0654,-0.0667,-0.0647,-0.0668,-0.0669,-0.0687,-0.069,-0.0696,-0.0706,-0.0708,-0.0715,-0.0716,-0.0716,-0.0716,0,0,0,0,0,0,0,-0.0564,-0.0568,-0.0603,-0.0607,-0.0611,-0.062,-0.0625,-0.0632,-0.0662,-0.0648,-0.0651,-0.0656,-0.0689,-0.0695,-0.0698,-0.0708,-0.0715,-0.0716,-0.0716,-0.0717,-0.0713,-0.0712,0,0,0,0,0,0,-0.0558,-0.0566,-0.0601,-0.0604,-0.0591,-0.062,-0.0626,-0.0632,-0.0662,-0.0668,-0.0655,-0.0657,-0.0693,-0.0696,-0.0699,-0.0692,-0.0716,-0.0717,-0.0717,-0.0714,-0.0713,-0.0712,0,0,0,0,0,0,-0.0557,-0.0561,-0.06,-0.0586,-0.0591,-0.062,-0.0628,-0.0633,-0.0639,-0.0668,-0.0673,-0.0656,-0.0694,-0.0698,-0.0702,-0.0694,-0.0717,-0.0718,-0.0715,-0.0714,-0.0713,-0.0677,0,0,0,0,0,0,-0.0556,-0.056,-0.0558,-0.0585,-0.0592,-0.0602,-0.0627,-0.0633,-0.0641,-0.0644,-0.067,-0.0675,-0.0695,-0.0701,-0.0703,-0.0696,-0.0719,-0.0716,-0.0714,-0.0713,-0.0679,-0.0674,-0.0671,0,0,0,0,0,-0.0554,-0.0546,-0.0558,-0.0562,-0.0589,-0.0602,-0.0605,-0.0628,-0.064,-0.0638,-0.0656,-0.0674,-0.0694,-0.0701,-0.0704,-0.0696,-0.0716,-0.0715,-0.0713,-0.068,-0.0675,-0.0671,0,0,0,0,0,0,-0.0516,-0.055,-0.0563,-0.0564,-0.058,-0.0608,-0.0606,-0.0622,-0.0635,-0.0637,-0.0665,-0.0671,-0.0672,-0.0685,-0.0692,-0.069,-0.0708,-0.0707,-0.0682,-0.0677,-0.0673,-0.067,-0.072,0,0,0,0,0,-0.0508,-0.0516,-0.0545,-0.0542,-0.055,-0.0576,-0.0582,-0.0599,-0.0616,-0.0623,-0.0641,-0.0657,-0.0667,-0.0673,-0.0684,-0.0681,-0.0687,-0.0677,-0.0673,-0.067,-0.0669,-0.0668,-0.0664,-0.0707,-0.0707,-0.0707,0,0,-0.0491,-0.0511,-0.0513,-0.0535,-0.0549,-0.0556,-0.0581,-0.0587,-0.0593,-0.0624,-0.0629,-0.0643,-0.0663,-0.0663,-0.0665,-0.0674,-0.0658,-0.0668,-0.0665,-0.0666,-0.0666,-0.0662,-0.0658,-0.0706,-0.0706,-0.0706,0,0,-0.0464,-0.0479,-0.0479,-0.0493,-0.0514,-0.0532,-0.0532,-0.0558,-0.0568,-0.0574,-0.0598,-0.0604,-0.0621,-0.0634,-0.0642,-0.062,-0.0637,-0.0623,-0.0602,-0.0601,-0.0597,-0.0594,-0.0586,-0.0583,-0.0621,-0.0621,-0.0621,0,-0.044,-0.0451,-0.0477,-0.0482,-0.049,-0.0519,-0.0519,-0.0531,-0.0554,-0.056,-0.057,-0.0592,-0.0607,-0.0611,-0.0605,-0.0612,-0.0612,-0.062,-0.0596,-0.0593,-0.0591,-0.0583,-0.058,-0.0619,-0.062,-0.062,-0.062,0,-0.0421,-0.0428,-0.0426,-0.0448,-0.0456,-0.0458,-0.0484,-0.049,-0.0506,-0.0522,-0.0528,-0.0547,-0.0562,-0.0565,-0.058,-0.0571,-0.0576,-0.0591,-0.0609,-0.0584,-0.0578,-0.0575,-0.0617,-0.0617,-0.0618,-0.0618,0,0,-0.037,-0.0407,-0.0405,-0.0416,-0.0441,-0.0447,-0.0451,-0.0466,-0.047,-0.0485,-0.0488,-0.0502,-0.0516,-0.0526,-0.0543,-0.0542,-0.0523,-0.0557,-0.0558,-0.0549,-0.0513,-0.0501,-0.0497,-0.0534,-0.0534,-0.0534,-0.0511,0,-0.0346,-0.0355,-0.0378,-0.0379,-0.0386,-0.0414,-0.0417,-0.0432,-0.0448,-0.0456,-0.0474,-0.0482,-0.05,-0.0506,-0.0507,-0.0525,-0.0516,-0.0527,-0.0537,-0.0537,-0.0531,-0.0494,-0.0482,-0.0459,-0.0509,-0.0508,-0.0508,0,-0.032,-0.0333,-0.0335,-0.036,-0.0364,-0.0366,-0.0382,-0.039,-0.0408,-0.042,-0.0431,-0.045,-0.0455,-0.0472,-0.0479,-0.0486,-0.0492,-0.0501,-0.0501,-0.0502,-0.0521,-0.0494,-0.0453,-0.0449,-0.0504,-0.0504,-0.0505,0,-0.0282,-0.0301,-0.0304,-0.0312,-0.0342,-0.0343,-0.0355,-0.0375,-0.0382,-0.0396,-0.0401,-0.0415,-0.0422,-0.0432,-0.0455,-0.0465,-0.0459,-0.0478,-0.0468,-0.0468,-0.0465,-0.0465,-0.0424,-0.047,-0.047,-0.047,-0.047,0,-0.0253,-0.0252,-0.0288,-0.029,-0.029,-0.0317,-0.0317,-0.0332,-0.0349,-0.0354,-0.0379,-0.0383,-0.0413,-0.042,-0.0438,-0.0441,-0.0444,-0.0453,-0.0458,-0.0451,-0.0449,-0.0454,-0.0456,-0.0469,-0.0469,-0.047,-0.047,0,-0.021,-0.0234,-0.0239,-0.0267,-0.0274,-0.0273,-0.0297,-0.03,-0.0317,-0.0323,-0.0326,-0.0354,-0.0364,-0.0388,-0.0404,-0.0416,-0.0414,-0.0423,-0.0408,-0.041,-0.0399,-0.04,-0.036,-0.0355,-0.0404,-0.0404,-0.0403,0,-0.0189,-0.019,-0.0218,-0.0223,-0.0235,-0.0243,-0.0251,-0.0278,-0.0285,-0.0306,-0.0306,-0.0319,-0.033,-0.0345,-0.0366,-0.0379,-0.0388,-0.0373,-0.039,-0.0382,-0.0387,-0.0386,-0.0386,-0.0369,-0.0368,-0.0368,-0.0367,0,-0.015,-0.0162,-0.0172,-0.0187,-0.0196,-0.0209,-0.0223,-0.0226,-0.0256,-0.0263,-0.0274,-0.0282,-0.0299,-0.0311,-0.0327,-0.034,-0.0358,-0.0362,-0.036,-0.0352,-0.0343,-0.0347,-0.0397,-0.0362,-0.0363,-0.0363,-0.0363,-0.0364,-0.0117,-0.0119,-0.0139,-0.015,-0.0164,-0.0176,-0.018,-0.0199,-0.0208,-0.0224,-0.024,-0.0249,-0.0268,-0.0291,-0.0302,-0.031,-0.0319,-0.0317,-0.0316,-0.0315,-0.0312,-0.0343,-0.0313,-0.0313,-0.0313,-0.0313,-0.0314,0,-0.0079,-0.0093,-0.0103,-0.0122,-0.0131,-0.0148,-0.0165,-0.0171,-0.0179,-0.0195,-0.0205,-0.0218,-0.023,-0.0252,-0.0265,-0.0267,-0.0276,-0.0269,-0.0269,-0.0272,-0.0303,-0.0303,-0.0262,-0.0262,-0.0262,-0.0262,-0.0262,-0.0262,-0.006,-0.0063,-0.0078,-0.0088,-0.0103,-0.0112,-0.012,-0.0132,-0.0145,-0.0158,-0.0168,-0.0182,-0.0201,-0.0216,-0.0227,-0.0233,-0.0237,-0.0228,-0.0236,-0.0265,-0.0269,-0.0274,-0.0274,-0.0228,-0.0228,-0.0205,-0.0204,-0.0204]}]]